When you browse on this site, cookies collect data to enhance your experience and personalize the content and advertising you see.
Visit our Privacy Policy to learn more. By continuing to use the site, you agree to this use of cookies and data.
  • In United Kingdom
  • List of Countries
  • For 7 days
  • Water Temperature
  • Satellite Maps
  • Weather Map
  • Weather Widgets
  • user-avatar
    Login

    Hourly Weather Saidpur

    Today, 20 March, Wednesday

    Time Temperature Precipitation Wind Pressure Humidity
    00:00 +27°C° 0 mm 1 mps 755 mmHg 26%
    01:00 +26°C° 0 mm 1 mps 754 mmHg 28%
    02:00 +25°C° 0 mm 1 mps 754 mmHg 29%
    03:00 +25°C° 0 mm 1 mps 754 mmHg 30%
    04:00 +24°C° 0 mm 1 mps 754 mmHg 31%
    05:00 +22°C° 0 mm 0 mps 754 mmHg 31%
    06:00 +21°C° 0 mm 0 mps 754 mmHg 33%
    07:00 +25°C° 0 mm 1 mps 755 mmHg 30%
    08:00 +27°C° 0 mm 1 mps 755 mmHg 26%
    09:00 +29°C° 0 mm 2 mps 755 mmHg 23%
    10:00 +31°C° 0 mm 3 mps 755 mmHg 20%
    11:00 +34°C° 0 mm 4 mps 755 mmHg 17%
    12:00 +35°C° 0 mm 4 mps 755 mmHg 16%
    13:00 +36°C° 0 mm 4 mps 755 mmHg 15%
    14:00 +36°C° 0 mm 4 mps 754 mmHg 14%
    15:00 +37°C° 0 mm 5 mps 753 mmHg 13%
    16:00 +36°C° 0 mm 4 mps 753 mmHg 15%
    17:00 +35°C° 0 mm 3 mps 753 mmHg 16%
    18:00 +33°C° 0 mm 3 mps 753 mmHg 18%
    19:00 +31°C° 0 mm 2 mps 753 mmHg 19%
    20:00 +30°C° 0 mm 2 mps 754 mmHg 20%
    21:00 +29°C° 0 mm 2 mps 754 mmHg 21%
    22:00 +28°C° 0 mm 2 mps 754 mmHg 21%
    23:00 +28°C° 0 mm 2 mps 754 mmHg 22%

    Tomorrow, 21 March, Thursday

    Time Temperature Precipitation Wind Pressure Humidity
    00:00 +27°C° 0 mm 2 mps 754 mmHg 22%
    01:00 +26°C° 0 mm 1 mps 754 mmHg 23%
    02:00 +26°C° 0 mm 1 mps 754 mmHg 24%
    03:00 +25°C° 0 mm 1 mps 754 mmHg 26%
    04:00 +25°C° 0 mm 1 mps 754 mmHg 27%
    05:00 +24°C° 0 mm 1 mps 754 mmHg 28%
    06:00 +24°C° 0 mm 1 mps 754 mmHg 29%
    07:00 +25°C° 0 mm 1 mps 755 mmHg 27%
    08:00 +27°C° 0 mm 2 mps 755 mmHg 26%
    09:00 +29°C° 0 mm 2 mps 756 mmHg 24%
    10:00 +31°C° 0 mm 2 mps 756 mmHg 21%
    11:00 +34°C° 0 mm 2 mps 756 mmHg 18%
    12:00 +35°C° 0 mm 2 mps 755 mmHg 15%
    13:00 +36°C° 0 mm 3 mps 754 mmHg 15%
    14:00 +37°C° 0 mm 5 mps 754 mmHg 14%
    15:00 +39°C° 0 mm 6 mps 753 mmHg 14%
    16:00 +37°C° 0 mm 5 mps 752 mmHg 15%
    17:00 +36°C° 0 mm 4 mps 752 mmHg 17%
    18:00 +35°C° 0 mm 3 mps 752 mmHg 19%
    19:00 +34°C° 0 mm 3 mps 753 mmHg 20%
    20:00 +32°C° 0 mm 2 mps 753 mmHg 21%
    21:00 +31°C° 0 mm 2 mps 754 mmHg 22%
    22:00 +30°C° 0 mm 2 mps 754 mmHg 23%
    23:00 +29°C° 0 mm 1 mps 754 mmHg 25%

    Day after tomorrow, 22 March, Friday

    Time Temperature Precipitation Wind Pressure Humidity
    00:00 +28°C° 0 mm 1 mps 754 mmHg 27%
    01:00 +28°C° 0 mm 1 mps 754 mmHg 29%
    02:00 +28°C° 0 mm 1 mps 753 mmHg 30%
    03:00 +27°C° 0 mm 1 mps 753 mmHg 32%
    04:00 +27°C° 0 mm 2 mps 753 mmHg 34%
    05:00 +26°C° 0 mm 2 mps 754 mmHg 35%
    06:00 +25°C° 0 mm 2 mps 754 mmHg 37%
    07:00 +27°C° 0 mm 2 mps 754 mmHg 34%
    08:00 +29°C° 0 mm 3 mps 755 mmHg 31%
    09:00 +30°C° 0 mm 3 mps 756 mmHg 28%
    10:00 +32°C° 0 mm 2 mps 755 mmHg 25%
    11:00 +35°C° 0 mm 2 mps 755 mmHg 22%
    12:00 +36°C° 0 mm 1 mps 755 mmHg 19%
    13:00 +38°C° 0 mm 2 mps 754 mmHg 18%
    14:00 +39°C° 0 mm 3 mps 753 mmHg 17%
    15:00 +41°C° 0 mm 4 mps 752 mmHg 16%
    16:00 +40°C° 0 mm 4 mps 751 mmHg 17%
    17:00 +38°C° 0 mm 3 mps 751 mmHg 18%
    18:00 +37°C° 0 mm 3 mps 751 mmHg 18%
    19:00 +36°C° 0 mm 3 mps 751 mmHg 19%
    20:00 +35°C° 0 mm 3 mps 752 mmHg 20%
    21:00 +34°C° 0 mm 3 mps 753 mmHg 22%
    22:00 +32°C° 0 mm 2 mps 753 mmHg 23%
    23:00 +31°C° 0 mm 2 mps 753 mmHg 25%

    23 March, Saturday

    Time Temperature Precipitation Wind Pressure Humidity
    00:00 +30°C° 0 mm 2 mps 753 mmHg 27%
    01:00 +29°C° 0 mm 2 mps 753 mmHg 29%
    02:00 +28°C° 0 mm 2 mps 752 mmHg 31%
    03:00 +28°C° 0 mm 1 mps 752 mmHg 33%
    04:00 +27°C° 0 mm 1 mps 752 mmHg 37%
    05:00 +26°C° 0 mm 1 mps 753 mmHg 40%
    06:00 +26°C° 0 mm 1 mps 753 mmHg 44%
    07:00 +27°C° 0 mm 1 mps 754 mmHg 43%
    08:00 +29°C° 0 mm 1 mps 754 mmHg 42%
    09:00 +30°C° 0 mm 2 mps 755 mmHg 41%
    10:00 +33°C° 0 mm 3 mps 755 mmHg 33%
    11:00 +36°C° 0 mm 3 mps 754 mmHg 24%
    12:00 +38°C° 0 mm 4 mps 754 mmHg 16%
    13:00 +39°C° 0 mm 5 mps 753 mmHg 14%
    14:00 +40°C° 0 mm 5 mps 752 mmHg 13%
    15:00 +40°C° 0 mm 6 mps 751 mmHg 11%
    16:00 +39°C° 0 mm 5 mps 751 mmHg 13%
    17:00 +37°C° 0 mm 4 mps 751 mmHg 14%
    18:00 +36°C° 0 mm 3 mps 751 mmHg 16%
    19:00 +34°C° 0 mm 3 mps 751 mmHg 15%
    20:00 +33°C° 0 mm 3 mps 752 mmHg 15%
    21:00 +32°C° 0 mm 4 mps 753 mmHg 15%
    22:00 +30°C° 0 mm 3 mps 753 mmHg 16%
    23:00 +29°C° 0 mm 3 mps 753 mmHg 16%

    24 March, Sunday

    Time Temperature Precipitation Wind Pressure Humidity
    00:00 +28°C° 0 mm 3 mps 753 mmHg 17%
    01:00 +27°C° 0 mm 3 mps 752 mmHg 18%
    02:00 +26°C° 0 mm 3 mps 752 mmHg 19%
    03:00 +26°C° 0 mm 3 mps 752 mmHg 19%
    04:00 +25°C° 0 mm 3 mps 752 mmHg 20%
    05:00 +25°C° 0 mm 3 mps 752 mmHg 21%
    06:00 +24°C° 0 mm 3 mps 753 mmHg 22%
    07:00 +26°C° 0 mm 3 mps 753 mmHg 21%
    08:00 +28°C° 0 mm 3 mps 754 mmHg 20%
    09:00 +29°C° 0 mm 3 mps 755 mmHg 19%
    10:00 +31°C° 0 mm 3 mps 754 mmHg 17%
    11:00 +34°C° 0 mm 3 mps 754 mmHg 16%
    12:00 +36°C° 0 mm 3 mps 754 mmHg 14%
    13:00 +37°C° 0 mm 4 mps 753 mmHg 13%
    14:00 +38°C° 0 mm 4 mps 752 mmHg 11%
    15:00 +39°C° 0 mm 5 mps 751 mmHg 10%
    16:00 +37°C° 0 mm 4 mps 751 mmHg 12%
    17:00 +36°C° 0 mm 3 mps 751 mmHg 14%
    18:00 +35°C° 0 mm 3 mps 751 mmHg 16%
    19:00 +34°C° 0 mm 3 mps 752 mmHg 17%
    20:00 +32°C° 0 mm 2 mps 753 mmHg 18%
    21:00 +30°C° 0 mm 2 mps 753 mmHg 19%
    22:00 +30°C° 0 mm 2 mps 753 mmHg 21%
    23:00 +29°C° 0 mm 2 mps 753 mmHg 22%

    25 March, Monday

    Time Temperature Precipitation Wind Pressure Humidity
    00:00 +28°C° 0 mm 2 mps 753 mmHg 23%
    01:00 +27°C° 0 mm 1 mps 753 mmHg 24%
    02:00 +27°C° 0 mm 1 mps 752 mmHg 25%
    03:00 +26°C° 0 mm 1 mps 752 mmHg 27%
    04:00 +26°C° 0 mm 1 mps 753 mmHg 28%
    05:00 +25°C° 0 mm 1 mps 753 mmHg 29%
    06:00 +24°C° 0 mm 1 mps 753 mmHg 30%
    07:00 +26°C° 0 mm 1 mps 754 mmHg 28%
    08:00 +28°C° 0 mm 2 mps 755 mmHg 26%
    09:00 +30°C° 0 mm 2 mps 755 mmHg 24%
    10:00 +32°C° 0 mm 2 mps 755 mmHg 21%
    11:00 +35°C° 0 mm 2 mps 755 mmHg 18%
    12:00 +36°C° 0 mm 1 mps 755 mmHg 15%
    13:00 +38°C° 0 mm 2 mps 754 mmHg 14%
    14:00 +38°C° 0 mm 3 mps 753 mmHg 13%
    15:00 +40°C° 0 mm 4 mps 752 mmHg 12%
    16:00 +38°C° 0 mm 3 mps 752 mmHg 13%
    17:00 +37°C° 0 mm 3 mps 752 mmHg 15%
    18:00 +36°C° 0 mm 2 mps 752 mmHg 16%
    19:00 +35°C° 0 mm 2 mps 753 mmHg 17%
    20:00 +32°C° 0 mm 1 mps 753 mmHg 18%
    21:00 +31°C° 0 mm 1 mps 754 mmHg 18%
    22:00 +30°C° 0 mm 1 mps 754 mmHg 19%
    23:00 +30°C° 0 mm 1 mps 754 mmHg 19%
    Show more